www.pogodaiklimat.ru

Погода и климат >> Архив погоды >> Албания >> Vlore


ПОГОДА в Vlore

  • Прогноз погоды в Vlore
  • Монитор погоды в Vlore
  • Климат города

АРХИВ ПОГОДЫ в Vlore

Время (UTC), дата Ветер
(напр.,м/с)
 
Видим.   Явления Облачность Т
(С)
Тd
(С)
f
(%)
Тe
(С)
Тes
(С)
Комфортность P
(гПа)
Po
(гПа)
Тmin
(С)
Tmax
(С)
R
(мм)
R24
(мм)
S
(см)
09 18.06 СВ 6 20 км 4/4 1380 м
[Cu med, cong]
+25.2 +18.2 65 +30 +34 душно 1009.8 1009.1
12 18.06 ЮЗ 8 20 км 6/6 1380 м
[Sc]
+28.8 +19.4 57 +35 +36 очень
душно
1008.9 1008.2
15 18.06 СЗ 4 15 км 10/10 1080 м
[Sc]
+25.6 +18.6 65 +30 +30 душно 1009.3 1008.6
18 18.06 СВ 10 15 км {дождь} 9/9 1080 м
[Sc]
+21.4 +18.4 83 +26 +26 душно 1009.9 1009.2 +29.2 0.4
21 18.06 СВ 2 12 км 8/8 1300 м
[Sc]
+19.2 +17.3 89 +22 +22 комфорт 1010.3 1009.6
06 19.06 СВ 4 20 км 8/8 1300 м
[Sc]
+20.8 +17.2 80 +25 +25 комфорт 1010.7 1010.0 +18.6
09 19.06 СВ 4 20 км 5/5 1380 м
[Cu med, cong]
+26.8 +18.4 60 +32 +37 очень
душно
1011.6 1010.9
12 19.06 ЮЗ 6 20 км 5/5 1200 м
[Cu med, cong]
+29.0 +16.3 46 +32 +36 душно 1012.2 1011.5
15 19.06 ЮЗ 6 20 км в посл. час дождь 8/8 1380 м
[Sc]
+26.6 +18.4 61 +31 +32 душно 1012.8 1012.1
18 19.06 СВ 4 15 км {дождь} 8/8 1380 м
[Sc]
+24.8 +16.8 61 +28 +28 жарко 1013.6 1012.9 +29.4 0.2
21 19.06 СВ 2 10 км 8/8 1300 м
[Sc]
+21.2 +16.1 73 +25 +25 комфорт 1014.5 1013.7
06 20.06 штиль 0 20 км 8/8 1300 м
[Sc]
+22.0 +16.9 73 +26 +28 душно 1016.0 1015.3 +20.0
09 20.06 СВ 4 10 км 8/8 1300 м
[Sc]
+25.2 +17.4 62 +29 +32 душно 1016.8 1016.1
12 20.06 ЮЗ 6 20 км 5/5 1380 м
[Cu hum]
+29.4 +17.3 48 +33 +37 душно 1016.4 1015.7
15 20.06 ЮВ 4 10 км в посл. час дождь {гроза} 10/10 1200 м
[Sc]
+23.8 +18.7 73 +28 +28 душно 1015.9 1015.2
18 20.06 СВ 6 20 км {гроза} 9/9 1200 м
[Sc]
+22.0 +17.5 76 +27 +27 душно 1016.2 1015.5 +31.0 7
21 20.06 СВ 6 12 км 8/8 1200 м
[Sc]
+21.6 +16.4 72 +25 +25 комфорт 1017.2 1016.5
06 21.06 СВ 6 20 км 6/6 1300 м
[Sc]
+22.6 +14.5 60 +26 +27 жарко 1012.3 1011.6 +20.4
09 21.06 СВ 8 20 км 6/6 1380 м
[Sc]
+28.6 +15.9 46 +32 +33 душно 1015.5 1014.8
12 21.06 ЮЗ 6 20 км 8/8 1380 м
[Sc]
+28.6 +17.4 51 +33 +34 очень
душно
1015.0 1014.3
15 21.06 ЮЗ 6 20 км 5/5 1380 м
[Sc]
+28.8 +15.6 45 +32 +33 душно 1013.6 1012.9
18 21.06 СЗ 4 20 км 5/5 1380 м
[Sc]
+26.4 +18.1 60 +31 +31 душно 1013.4 1012.7 +29.4
21 21.06 штиль 0 12 км 4/4 1380 м
[Sc]
+23.2 +18.7 76 +29 +29 душно 1014.1 1013.4
06 22.06 ЮВ 4 20 км ясно +21.4 +16.1 72 +25 +29 комфорт 1013.1 1012.4 +19.4
09 22.06 ЮВ 4 20 км ясно +27.4 +17.0 53 +31 +43 душно 1013.1 1012.4
12 22.06 ЮВ 4 20 км 4/4 1380 м
[Cu med, cong]
+28.8 +16.0 46 +32 +40 душно 1011.0 1010.3
15 22.06 ЮЗ 8 20 км 5/5 1380 м
[Cu med, cong]
+28.8 +19.7 58 +35 +35 очень
душно
1010.9 1010.2
18 22.06 ЮЗ 10 20 км 6/6 1380 м
[Sc]
+27.2 +15.5 49 +30 +30 душно 1011.2 1010.5 +29.8
21 22.06 ЮЗ 4 12 км 6/6 1380 м
[Sc]
+23.8 +17.0 66 +28 +28 душно 1011.8 1011.1
06 23.06 ЮВ 4 10 км слабый ливневой дождь {гроза} 10/10 1000 м
[Cb calv]
+19.4 +17.2 87 +21 +21 комфорт 1013.1 1012.4 +19.0
09 23.06 СВ 4 15 км в посл. час дождь {гроза, ливн. осадки} 10/10 1200 м
[Sc]
+21.6 +18.4 82 +26 +26 душно 1013.0 1012.3
12 23.06 СВ 4 20 км {гроза} 9/9 1200 м
[Sc]
+25.8 +19.2 67 +31 +32 очень
душно
1013.6 1012.9 1
15 23.06 СВ 6 20 км {дождь} 9/9 1200 м
[Sc]
+26.0 +18.9 65 +31 +31 очень
душно
1013.3 1012.6
18 23.06 С 10 20 км {дождь} 4/4 1380 м
[Sc diur, vesp]
+23.8 +11.5 46 +25 +25 комфорт 1013.5 1012.8 +26.4 2
21 23.06 СВ 4 15 км ясно +20.8 +12.2 58 +23 +23 комфорт 1014.3 1013.6
06 24.06 штиль 0 20 км 3/3 1380 м
[Cu med, cong]
+18.0 +13.5 75 +18 +23 1012.6 1011.9 +16.6
09 24.06 СВ 4 20 км ясно +24.8 +12.7 47 +27 +38 жарко 1012.9 1012.2
12 24.06 СВ 8 20 км 4/4 1380 м
[Cu med, cong]
+26.6 +14.8 48 +29 +31 жарко 1013.2 1012.5
15 24.06 С 8 20 км 4/4 1380 м
[Cu med, cong]
+25.4 +11.2 41 +27 +27 жарко 1013.0 1012.3
18 24.06 СЗ 6 20 км 4/0
[Ci fib]
+23.2 +11.6 48 +26 +26 жарко 1012.6 1011.9 +26.8
21 24.06 СЗ 4 12 км 3/0
[Ci fib]
+20.4 +12.6 61 +23 +23 комфорт 1013.5 1012.7

 

Местоположение метеостанции Vlore (Албания): широта 40.47 долгота 19.48 высота над уровнем моря 1 м.

В архиве по умолчанию представлена погода в Vlore за последнюю неделю. Архивные данные за месяц целиком и за предыдущие месяцы, начиная с января 2011 года, Вы можете получить, выбрав интересующий диапазон дат из раскрывающегося списка и нажав кнопку "Ввод!".


*Определитесь, кто Вы:
робот инопланетянин человек

Внимание! Время в таблицах - всемирное. Для получения местного времени необходимо прибавить поправку, которая в Vlore равна 1 ч.

Смотрите также архив погоды в соседних городах и на ближайших метеорологических станциях:

Погода в Sazan Island (Албания) (17 км)
Погода в Qyteti Stalin (Албания) (51 км)
Погода в Gjirokastra (Албания) (72 км)
Погода в Saranda (Албания) (79 км)
Погода в Durres (Албания) (92 км)
Погода в Otranto (Италия) (94 км)
Погода в Elbasan (Албания) (96 км)
Погода в Tirana (Албания) (99 км)
Погода в Tirana Lapraka (Албания) (102 км)
Погода в Kerkyra (Греция) (102 км)

Пояснения к столбцам:

Ветер - указаны скорость ветра в м/с - средняя за 10 мин, порывы в срок и между сроками (в фигурных скобках) и направление, откуда дует ветер: С - северный, СВ - северо-восточный, В - восточный, ЮВ - юго-восточный, Ю - южный, ЮЗ - юго-западный, З - западный, СЗ - северо-западный.
Видимость - горизонтальная дальность видимости в метрах или километрах. При видимости от 1 до 10 км при отсутствии осадков обычно наблюдается дымка, при ухудшении видимости до 1 км и менее - туман. В сухую погоду видимость может ухудшаться дымом, пылью или мглою.
Явления - указаны атмосферные явления, наблюдавшиеся в срок или в последний час перед сроком; фигурными скобками обозначены явления, наблюдавшиеся между сроками (за 1-3 часа до срока); квадратными скобками обозначены град или гололедные отложения с указанием их диаметра в мм.
Облачность - указаны через наклонную черту общая и нижняя облачность в баллах и высота нижней границы облаков в метрах; квадратными скобками обозначены формы облаков: Ci - перистые, Cs - перисто-слоистые, Cc - перисто-кучевые, Ac - высококучевые, As - высокослоистые, Sc - слоисто-кучевые, Ns - слоисто-дождевые, Cu - кучевые, Cb - кучево-дождевые. Подробнее классификацию облаков см. в Атласе облаков (PDF).
T - Температура воздуха - температура, измеренная на высоте 2 м над землей.
Td - Температура точки росы - температура, при понижении до которой содержащийся в воздухе водяной пар достигнет насыщения.
f - Относительная влажность воздуха - влажноcть воздуха, измеренная на высоте 2 м над землей.
Te - Эффективная температура - температура, которую ощущает одетый по сезону человек в тени. Характеристика душности погоды. При расчете учитывается влияние влажности воздуха и скорости ветра на теплоощущения человека.
Tes - Эффективная температура на солнце - температура, которую ощущает человек, с поправкой на солнечный нагрев. Характеристика знойности погоды. Зависит от высоты солнца над горизонтом, облачности и скорости ветра. Ночью, в пасмурную погоду, а также при ветре 12 м/с и более поправка равна нулю.
P - Атмосферное давление - приведенное к уровню моря атмосферное давление.
Po - Атмосферное давление - измеренное на уровне метеостанции атмосферное давление.
Tmin - Минимальная температура - минимум температуры воздуха на высоте 2 м над землей.
Tmax - Максимальная температура - максимум температуры воздуха на высоте 2 м над землей.
R - Количество осадков - Количество выпавших осадков за период времени, мм. При наведении курсора мыши на число - период времени, за который выпало указанное количество осадков.
R24 - Количество осадков - Количество выпавших осадков за 24 часа, мм.
S - Снежный покров - Высота снежного покрова, см. При наведении курсора мыши на число - состояние снежного покрова и степень покрытия местности в баллах.